Regional Weather Roundup
Issued by NWS Austin/San Antonio, TX

Home | Current Version | Previous Version | Text Only | Print | Product List | Glossary On
Versions: 1 2 3 4 5 6 7 8 9 10 11 12 13 14 15 16 17 18 19 20 21 22 23 24 25 26 27 28 29 30 31 32 33 34 35 36 37 38 39 40 41 42 43 44 45 46 47 48 49 50
000
ASUS44 KEWX 240310
RWREWX
SOUTH TEXAS REGIONAL WEATHER ROUNDUP
NATIONAL WEATHER SERVICE AUSTIN/SAN ANTONIO TX
900 PM CST SUN FEB 23 2020

NOTE: "FAIR" INDICATED FEW OR NO CLOUDS BELOW 12,000 FEET WITH NO
SIGNIFICANT WEATHER AND/OR OBSTRUCTIONS TO VISIBILITY.

* - THESE STATIONS ARE NOT NWS OR FAA STATIONS...AND ARE NOT SUBJECT
    TO NWS AND FAA QUALITY CONTROL.

TXZ171-172-183>190-240400-
TEXAS HILL COUNTRY AND EDWARDS PLATEAU

CITY           SKY/WX    TMP DP  RH WIND       PRES   REMARKS
JUNCTION       CLEAR     57  54  89 CALM      29.93R
*LLANO         CLEAR     57  55  94 CALM      29.94R
BURNET         CLEAR     61  56  83 S7        29.91R
*HORSESHOE BAY PTCLDY    63  57  82 CALM      29.91R
*LAGO VISTA    CLEAR     61  58  90 S5        29.90S
*KERRVILLE     CLEAR     60  55  85 CALM      29.90S
*FREDERICKSBRG CLEAR     61  54  78 S3        29.91R
*ROCKSPRINGS     N/A     57  54  88 CALM      29.98R
*BOERNE        CLEAR     61  57  88 CALM      29.92R
*CASTROVILLE   CLEAR     69  60  72 SE10      29.91S
HONDO          CLEAR     65  57  75 SE9       29.89S
*UVALDE        CLEAR     64  56  77 NE5       29.89R
DEL RIO        PTCLDY    69  54  58 E7        29.87R
*LAUGHLIN AFB  PTCLDY    65  55  69 E7        29.87R
*SPOFFORD      NOT AVBL
*EAGLE PASS    CLEAR     68  54  60 E6        29.87R
CARRIZO SPRGS  CLEAR     68  55  64 SE5       29.85F
*FAITH RANCH   CLEAR     68  55  64 E6        29.86S
$$

TXZ173-191>194-202-209-217>225-228-240400-
CENTRAL AND SOUTH CENTRAL TEXAS

CITY           SKY/WX    TMP DP  RH WIND       PRES   REMARKS
GEORGETOWN     CLOUDY    63  59  87 S8        29.90F
*TAYLOR        CLEAR     62  59  90 S13       29.88F
AUSTIN/BERGSTM MOCLDY    66  59  78 S9        29.89S
AUSTIN/MABRY   MOCLDY    65  58  78 S6        29.89F
*PFLUGERVILLE  CLOUDY    64  59  82 S13       29.89F
SAN MARCOS     CLEAR     66  61  84 S15       29.91S
NEW BRAUNFELS  CLEAR     67  60  78 S12       29.89F
*RANDOLPH AFB  PTCLDY    65  60  85 SE13      29.89S
*SEGUIN        PTCLDY    65  60  84 S13       29.94F
SAN ANTONIO    CLOUDY    66  59  78 SE14      29.90S
STINSON FIELD  CLEAR     65  60  84 SE12      29.87F
*KELLY FIELD   CLEAR     67  60  78 SE10      29.88R
*PLEASANTON    CLEAR     67  60  78 SE10G17   29.90S
*KENEDY        CLOUDY    68  63  82 SE8       29.93F
*LA GRANGE     CLOUDY    66  62  87 S13G20    29.91F
*GIDDINGS      PTCLDY    65  60  82 S8G16     29.92F
*GONZALES      CLOUDY    67  62  85 SE9G16    29.91F
$$

TXZ163>164-176>182-195>201-210>213-226-227-235-240400-
SOUTHEAST TEXAS

CITY           SKY/WX    TMP DP  RH WIND       PRES   REMARKS
COLLEGE STN    CLOUDY    64  58  80 SE13      29.92S
*BRYAN         CLOUDY    62  62 100 SE9       29.94S
*CALDWELL      PTCLDY    64  61  90 S14G25    29.92R
*CROCKETT      NOT AVBL
*BRENHAM       CLOUDY    66  60  81 SE9       29.95F
HUNTSVILLE     CLOUDY    62  57  83 SE7       29.93F
CONROE         CLOUDY    62  57  83 SE10      29.98F
HOUSTON BUSH   CLOUDY    62  58  86 SE12      29.98F
HOUSTON HOBBY  CLOUDY    63  59  87 E7        29.99S
*HOUSTON SW AP LGT RAIN  62  61  97 SE3       30.00R
PEARLAND       CLOUDY    64  60  87 SE5       30.00S
HOUSTON HOOKS  CLOUDY    62  57  83 SE8       29.97F
ELLINGTON FLD  CLOUDY    63  59  88 E6        29.98F
SUGAR LAND     CLOUDY    64  61  90 SE10      29.97F
*HOUSTON EXEC  CLOUDY    64  61  88 SE9       29.97S
*CLEVELAND MUN CLOUDY    61  57  88 SE5       30.01R
*WHARTON       CLOUDY    65  59  80 SE9       29.97F
*COLUMBUS      CLOUDY    62  56  82 S6        29.97R
*EAGLE LAKE    CLOUDY    67  62  85 S12       29.95
$$

TXZ214>216-236>238-240400-
THE UPPER TEXAS COAST

CITY           SKY/WX    TMP DP  RH WIND       PRES   REMARKS
*ORANGE        CLOUDY    63  58  86 E8        30.04F
PORT ARTHUR    CLOUDY    63  59  87 E14G22    30.00F
GALVESTON      CLOUDY    65  61  87 E10       29.99F
ANGLETON       CLOUDY    66  62  87 S13       29.98S
*BAY CITY      CLOUDY    69  64  83 SE9       29.98R
PALACIOS       CLOUDY    67  61  81 SE15      29.96R
$$

TXZ229>234-239>247-240400-
TEXAS COASTAL BEND AND RIO GRANDE PLAINS

CITY           SKY/WX    TMP DP  RH WIND       PRES   REMARKS
VICTORIA       CLOUDY    67  62  84 SE14      29.94S
*BEEVILLE      CLOUDY    69  67  95 SE8       29.91R
ROCKPORT       CLOUDY    68  62  81 SE9       29.93F
*PORT ARANSAS  MOCLDY    65  63  91 SE9       29.95R
*PORT LAVACA   CLOUDY    67  64  89 SE9       29.97R
*INGLESIDE     PTCLDY    68  66  92 S9        29.94R
CORPUS CHRISTI MOCLDY    68  63  84 SE16      29.93R
CORPUS NAS     CLOUDY    68  66  93 SE15      29.93R
*ROBSTOWN      CLEAR     67  63  86 SE16      29.91F
ALICE          CLEAR     68  64  87 SE12      29.90S
KINGSVILLE NAS CLEAR     68  64  87 SE15G21   29.90R
COTULLA        CLEAR     70  63  78 SE13      29.87S
LAREDO         CLEAR     72  60  66 SE10      29.85S
$$

TXZ248>255-240400-
DEEP SOUTH TEXAS

CITY           SKY/WX    TMP DP  RH WIND       PRES   REMARKS
BROWNSVILLE    CLOUDY    70  66  87 SE12      29.92R
PORT ISABEL    CLOUDY    69  65  86 SE10      29.91R
HARLINGEN      MOCLDY    70  66  87 S10       29.92R
*HEBBRONVILLE  CLEAR     67  58  72 S8        29.89F
MCALLEN        CLEAR     71  64  78 SE14      29.92R
*WESLACO       CLOUDY    69  64  84 S12       29.91
FALFURRIAS     CLEAR     71  62  75 SE6       29.90R
EDINBURG       FAIR      69  63  81 SE12      29.91R
*ZAPATA        FAIR      75  62  64 SE13G18   29.87F
$$

TXZ213>215-236>238-242>244-246-247-251-254-255-240400-
CMAN STATIONS

STATION/POSITION TIME  TEMP    WIND        PRES    WAVE
                       AIR SEA DIR/SP/G            HT/PER
                 (UTC) (F)     (DEG/KT/KT) (MB)    (FT/S)
SABINE PASS      0224   61 60  120/ 13/ 16 1018.3
NORTH JETTY/GLS  0224   63 59  130/ 14/ 17 1014.5
EAGLE POINT      0224   60 57  140/  9/  9 1015.0
MORGANS POINT    0224   61 59  120/ 10/ 12 1015.4
PORT O`CONNOR    0224   64 65  130/ 12/ 13 1014.0
PORT ARANSAS     0300   65 61  140/ 13/ 13 1013.2
MALAQUITE BEACH  0218   65 63  120/ 13/ 15 1012.4
BAFFIN BAY       0218   65 65  120/ 13/ 16 1012.8
PORT ISABEL      0218   67 63  140/ 10/ 11 1013.3
$$




USA.gov is the U.S. government's official web portal to all federal, state and local government web resources and services.